Search for airport 
image banner adimage banner ad
image banner ad

DABS - Tebessa / Cheikh Larbi Tebessi

Located in Tebessa, Algeria

ICAO - DABS, IATA - TEE

Data provided by Airmate  

General information

Coordinates: N35°25'57" E8°7'32"
Elevation is 2657 feet MSL.
 
Rated:
View ratings:
[VIEW]
View others Airports in Tébessa Province

Operational data

Open for public use
Current time UTC:
Current local time:
Weather
METAR: DABS 290100Z 10005KT CAVOK 13/04 Q1022
TAF: TAF DABS 282300Z 2900/2924 13006KT CAVOK BECMG 2910/2912 27010KT BECMG 2916/2918 21008KT
View NOTAMs / SUP AIP / TFR affecting this airport [VIEW]
Communications frequencies: [VIEW]

Runways:

RWY identifierQFULength (ft)Width (ft)SurfaceLDA (ft)
11113°9843148ASP
29293°9843148
12124°787498
30304°787498

Airport contact information

Address: Tebessa Algeria

Satellite view of DABS